• In Deutschland
  • Länderverzeichnis
  • Für 7 Tage
  • Wassertemperatur
  • Satellitenkarten
  • Wetterkarte
  • Widgets
  • user-avatar
    Anmelden

    Stündliche Wetter Jechegnadsor

    Heute, 20 Oktober, Freitag

    Zeit Temperatur Niederschläge Wind Luftdruck Luftfeuchtigkeit
    00:00 +10°C° 0 mm 1 m/S 654 mmHg 49%
    01:00 +9°C° 0 mm 1 m/S 654 mmHg 50%
    02:00 +9°C° 0 mm 1 m/S 654 mmHg 51%
    03:00 +9°C° 0 mm 1 m/S 653 mmHg 51%
    04:00 +9°C° 0 mm 1 m/S 653 mmHg 53%
    05:00 +8°C° 0 mm 1 m/S 653 mmHg 55%
    06:00 +8°C° 0 mm 1 m/S 653 mmHg 57%
    07:00 +10°C° 0 mm 1 m/S 654 mmHg 51%
    08:00 +12°C° 0 mm 1 m/S 654 mmHg 45%
    09:00 +14°C° 0 mm 1 m/S 655 mmHg 40%
    10:00 +15°C° 0 mm 1 m/S 655 mmHg 37%
    11:00 +16°C° 0 mm 2 m/S 655 mmHg 33%
    12:00 +17°C° 0 mm 2 m/S 655 mmHg 30%
    13:00 +17°C° 0 mm 2 m/S 655 mmHg 30%
    14:00 +17°C° 0 mm 2 m/S 655 mmHg 30%
    15:00 +17°C° 0 mm 2 m/S 654 mmHg 30%
    16:00 +16°C° 0 mm 1 m/S 654 mmHg 34%
    17:00 +14°C° 0 mm 1 m/S 654 mmHg 39%
    18:00 +12°C° 0 mm 1 m/S 653 mmHg 43%
    19:00 +12°C° 0 mm 1 m/S 653 mmHg 44%
    20:00 +10°C° 0 mm 0 m/S 653 mmHg 45%
    21:00 +10°C° 0 mm 0 m/S 654 mmHg 46%
    22:00 +10°C° 0 mm 0 m/S 654 mmHg 47%
    23:00 +9°C° 0 mm 0 m/S 654 mmHg 47%

    Morgen, 21 Oktober, Samstag

    Zeit Temperatur Niederschläge Wind Luftdruck Luftfeuchtigkeit
    00:00 +9°C° 0 mm 0 m/S 653 mmHg 48%
    01:00 +9°C° 0 mm 0 m/S 653 mmHg 49%
    02:00 +8°C° 0 mm 0 m/S 653 mmHg 50%
    03:00 +8°C° 0 mm 0 m/S 653 mmHg 50%
    04:00 +9°C° 0 mm 1 m/S 653 mmHg 51%
    05:00 +9°C° 0 mm 1 m/S 653 mmHg 52%
    06:00 +8°C° 0 mm 1 m/S 653 mmHg 53%
    07:00 +10°C° 0 mm 1 m/S 653 mmHg 47%
    08:00 +12°C° 0 mm 1 m/S 654 mmHg 41%
    09:00 +14°C° 0 mm 1 m/S 655 mmHg 35%
    10:00 +15°C° 0 mm 1 m/S 654 mmHg 33%
    11:00 +16°C° 0 mm 1 m/S 654 mmHg 31%
    12:00 +17°C° 0 mm 2 m/S 654 mmHg 28%
    13:00 +17°C° 0 mm 2 m/S 654 mmHg 28%
    14:00 +17°C° 0 mm 2 m/S 653 mmHg 27%
    15:00 +17°C° 0 mm 2 m/S 653 mmHg 27%
    16:00 +16°C° 0 mm 1 m/S 652 mmHg 31%
    17:00 +14°C° 0 mm 1 m/S 652 mmHg 35%
    18:00 +11°C° 0 mm 0 m/S 651 mmHg 39%
    19:00 +11°C° 0 mm 0 m/S 651 mmHg 39%
    20:00 +11°C° 0 mm 1 m/S 651 mmHg 40%
    21:00 +11°C° 0 mm 1 m/S 651 mmHg 40%
    22:00 +11°C° 0 mm 1 m/S 651 mmHg 39%
    23:00 +10°C° 0 mm 1 m/S 651 mmHg 38%

    übermorgen, 22 Oktober, Sonntag

    Zeit Temperatur Niederschläge Wind Luftdruck Luftfeuchtigkeit
    00:00 +10°C° 0 mm 1 m/S 651 mmHg 38%
    01:00 +10°C° 0 mm 1 m/S 651 mmHg 37%
    02:00 +9°C° 0 mm 1 m/S 651 mmHg 37%
    03:00 +9°C° 0 mm 1 m/S 650 mmHg 36%
    04:00 +9°C° 0 mm 1 m/S 650 mmHg 37%
    05:00 +9°C° 0 mm 1 m/S 650 mmHg 38%
    06:00 +8°C° 0 mm 1 m/S 650 mmHg 39%
    07:00 +10°C° 0 mm 1 m/S 651 mmHg 36%
    08:00 +12°C° 0 mm 1 m/S 651 mmHg 34%
    09:00 +14°C° 0 mm 2 m/S 652 mmHg 31%
    10:00 +15°C° 0 mm 2 m/S 652 mmHg 30%
    11:00 +16°C° 0 mm 2 m/S 651 mmHg 28%
    12:00 +17°C° 0 mm 3 m/S 651 mmHg 27%
    13:00 +17°C° 0 mm 3 m/S 651 mmHg 27%
    14:00 +17°C° 0 mm 3 m/S 650 mmHg 27%
    15:00 +17°C° 0 mm 3 m/S 650 mmHg 27%
    16:00 +15°C° 0 mm 2 m/S 650 mmHg 31%
    17:00 +14°C° 0 mm 2 m/S 649 mmHg 34%
    18:00 +12°C° 0 mm 2 m/S 649 mmHg 37%
    19:00 +12°C° 0 mm 2 m/S 649 mmHg 38%
    20:00 +10°C° 0 mm 2 m/S 649 mmHg 38%
    21:00 +11°C° 0 mm 1 m/S 650 mmHg 39%
    22:00 +10°C° 0 mm 2 m/S 650 mmHg 39%
    23:00 +9°C° 0 mm 2 m/S 650 mmHg 40%

    23 Oktober, Montag

    Zeit Temperatur Niederschläge Wind Luftdruck Luftfeuchtigkeit
    00:00 +9°C° 0 mm 2 m/S 649 mmHg 40%
    01:00 +9°C° 0 mm 2 m/S 650 mmHg 41%
    02:00 +8°C° 0 mm 2 m/S 650 mmHg 41%
    03:00 +8°C° 0 mm 2 m/S 650 mmHg 42%
    04:00 +8°C° 0 mm 2 m/S 650 mmHg 44%
    05:00 +8°C° 0 mm 1 m/S 650 mmHg 45%
    06:00 +8°C° 0 mm 1 m/S 650 mmHg 47%
    07:00 +10°C° 0 mm 1 m/S 651 mmHg 42%
    08:00 +12°C° 0 mm 1 m/S 652 mmHg 38%
    09:00 +13°C° 0 mm 1 m/S 653 mmHg 34%
    10:00 +14°C° 0 mm 2 m/S 653 mmHg 32%
    11:00 +15°C° 0 mm 2 m/S 653 mmHg 29%
    12:00 +16°C° 0 mm 2 m/S 653 mmHg 27%
    13:00 +16°C° 0 mm 2 m/S 653 mmHg 26%
    14:00 +17°C° 0 mm 2 m/S 653 mmHg 26%
    15:00 +17°C° 0 mm 2 m/S 653 mmHg 25%
    16:00 +15°C° 0 mm 2 m/S 653 mmHg 29%
    17:00 +13°C° 0 mm 1 m/S 652 mmHg 33%
    18:00 +12°C° 0 mm 1 m/S 652 mmHg 37%
    19:00 +12°C° 0 mm 1 m/S 653 mmHg 37%
    20:00 +10°C° 0 mm 2 m/S 653 mmHg 36%
    21:00 +10°C° 0 mm 2 m/S 653 mmHg 36%
    22:00 +10°C° 0 mm 2 m/S 653 mmHg 35%
    23:00 +10°C° 0 mm 2 m/S 653 mmHg 35%

    24 Oktober, Dienstag

    Zeit Temperatur Niederschläge Wind Luftdruck Luftfeuchtigkeit
    00:00 +10°C° 0 mm 2 m/S 653 mmHg 34%
    01:00 +9°C° 0 mm 2 m/S 653 mmHg 34%
    02:00 +9°C° 0 mm 2 m/S 653 mmHg 33%
    03:00 +9°C° 0 mm 2 m/S 652 mmHg 32%
    04:00 +9°C° 0 mm 2 m/S 652 mmHg 32%
    05:00 +10°C° 0 mm 1 m/S 653 mmHg 32%
    06:00 +9°C° 0 mm 1 m/S 653 mmHg 32%
    07:00 +10°C° 0 mm 2 m/S 653 mmHg 31%
    08:00 +13°C° 0 mm 2 m/S 654 mmHg 29%
    09:00 +15°C° 0 mm 2 m/S 655 mmHg 28%
    10:00 +16°C° 0 mm 2 m/S 655 mmHg 27%
    11:00 +17°C° 0 mm 3 m/S 654 mmHg 26%
    12:00 +18°C° 0 mm 3 m/S 654 mmHg 25%
    13:00 +18°C° 0 mm 3 m/S 654 mmHg 24%
    14:00 +18°C° 0 mm 3 m/S 654 mmHg 24%
    15:00 +18°C° 0 mm 2 m/S 654 mmHg 24%
    16:00 +16°C° 0 mm 2 m/S 654 mmHg 28%
    17:00 +15°C° 0 mm 2 m/S 654 mmHg 32%
    18:00 +13°C° 0 mm 1 m/S 654 mmHg 35%
    19:00 +13°C° 0 mm 2 m/S 654 mmHg 36%
    20:00 +13°C° 0 mm 2 m/S 654 mmHg 36%
    21:00 +12°C° 0 mm 2 m/S 654 mmHg 37%
    22:00 +12°C° 0 mm 2 m/S 654 mmHg 38%
    23:00 +12°C° 0 mm 2 m/S 655 mmHg 39%

    25 Oktober, Mittwoch

    Zeit Temperatur Niederschläge Wind Luftdruck Luftfeuchtigkeit
    00:00 +12°C° 0 mm 2 m/S 655 mmHg 41%
    01:00 +12°C° 0 mm 2 m/S 655 mmHg 42%
    02:00 +12°C° 0 mm 2 m/S 655 mmHg 44%
    03:00 +10°C° 0 mm 2 m/S 655 mmHg 46%
    04:00 +10°C° 0 mm 2 m/S 655 mmHg 46%
    05:00 +10°C° 0 mm 2 m/S 655 mmHg 47%
    06:00 +10°C° 0 mm 2 m/S 656 mmHg 48%
    07:00 +13°C° 0 mm 2 m/S 656 mmHg 42%
    08:00 +15°C° 0 mm 2 m/S 657 mmHg 37%
    09:00 +17°C° 0 mm 2 m/S 658 mmHg 31%
    10:00 +18°C° 0 mm 2 m/S 658 mmHg 28%
    11:00 +19°C° 0 mm 2 m/S 658 mmHg 26%
    12:00 +20°C° 0 mm 2 m/S 658 mmHg 23%
    13:00 +20°C° 0 mm 2 m/S 657 mmHg 23%
    14:00 +20°C° 0 mm 2 m/S 657 mmHg 23%
    15:00 +20°C° 0 mm 2 m/S 657 mmHg 23%
    16:00 +18°C° 0 mm 2 m/S 657 mmHg 27%
    17:00 +17°C° 0 mm 2 m/S 656 mmHg 30%
    18:00 +15°C° 0 mm 1 m/S 656 mmHg 33%
    19:00 +15°C° 0 mm 1 m/S 656 mmHg 33%
    20:00 +14°C° 0 mm 2 m/S 657 mmHg 33%
    21:00 +14°C° 0 mm 2 m/S 657 mmHg 32%
    22:00 +14°C° 0 mm 2 m/S 657 mmHg 34%
    23:00 +14°C° 0 mm 2 m/S 657 mmHg 36%
    Mehr zeigen